Location: Carnetin
(48.9010°N, 2.7059°E)
Time: 03:32:42
(UTC+00:00)

USA 229 - Pass Details

Date: 03 June 2022
Orbit: 938 x 1274 km, 63.4° (Epoch: 24 May)

Event Time Altitude Azimuth Distance (km) Brightness Sun altitude
Rises 21:58:47 0° 317° (NW) 3,943 8.2 -14.7°
Reaches altitude 10° 22:01:23 10° 318° (NW) 3,028 7.3 -14.9°
Maximum altitude 22:08:43 89° 233° (SW) 1,207 3.9 -15.4°
Enters shadow 22:14:27 20° 142° (SE) 2,513 5.0 -15.7°
